Weather History for KHPN - July, 2014

Change the Weather History Date:

Sunday, July 27, 2014

  Actual Average Record
Temperature  
Mean Temperature 75 °F -  
Max Temperature 84 °F 80 °F 95 °F (1999)
Min Temperature 66 °F 62 °F 52 °F (1977)
Cooling Degree Days 10    
Growing Degree Days 25 (Base 50)    
Moisture  
Dew Point 68 °F    
Average Humidity 81    
Maximum Humidity 97    
Minimum Humidity 53    
Precipitation  
Precipitation 0.00 in - - ()
Sea Level Pressure  
Sea Level Pressure 29.75 in    
Wind  
Wind Speed 3 mph (South)    
Max Wind Speed 12 mph    
Max Gust Speed 18 mph    
Visibility 7 miles    
Events Rain    
Averages and records for this station are not official NWS values.
T = Trace of Precipitation, MM = Missing Value Source: NWS Daily Summary

Daily Weather History Graph

Daily Weather History Graph

Search for Another Location

Airport or City:

Trip Planner

Search our weather history database for the weather conditions in past years. The results will help you decide how hot, cold, wet, or windy it might be!

Date:

Astronomy

Jul. 27, 2014 Rise Set
Actual Time 5:45 AM EDT 8:16 PM EDT
Civil Twilight 5:14 AM EDT 8:47 PM EDT
Nautical Twilight 4:35 AM EDT 9:26 PM EDT
Astronomical Twilight 3:51 AM EDT 10:10 PM EDT
Moon 6:31 AM EDT (7/27) 8:23 PM EDT (7/27)
Length of Visible Light 15h 33m
Length of Day
14h 30m
New Moon, 0% of the Moon is Illuminated
Jul 27
New Moon
Aug 3
First Quarter
Aug 10
Full
Aug 17
Last Quarter
Aug 25
New

Hourly Weather History & Observations

Time (EDT) Temp. Heat Index Dew Point Humidity Pressure Visibility Wind Dir Wind Speed Gust Speed Precip Events Conditions
12:56 AM 69.8 °F - 66.2 °F 88% 29.90 in 9.0 mi Calm Calm - N/A   Clear
1:56 AM 68.0 °F - 66.0 °F 93% 29.86 in 7.0 mi Calm Calm - N/A   Partly Cloudy
2:56 AM 68.0 °F - 66.0 °F 93% 29.83 in 5.0 mi SE 5.8 mph - N/A   Clear
3:56 AM 66.0 °F - 64.9 °F 96% 29.84 in 5.0 mi Calm Calm - N/A   Clear
4:56 AM 66.0 °F - 64.9 °F 96% 29.83 in 5.0 mi Calm Calm - N/A   Clear
5:56 AM 66.9 °F - 66.0 °F 97% 29.82 in 1.5 mi SSE 3.5 mph - N/A   Mostly Cloudy
6:56 AM 69.1 °F - 68.0 °F 96% 29.81 in 1.5 mi Calm Calm - N/A   Mostly Cloudy
7:56 AM 70.0 °F - 68.0 °F 93% 29.79 in 2.0 mi South 5.8 mph - 0.00 in   Mostly Cloudy
8:34 AM 71.6 °F - 69.8 °F 94% 29.79 in 5.0 mi SSE 6.9 mph - N/A   Mostly Cloudy
8:56 AM 73.0 °F - 69.1 °F 87% 29.78 in 6.0 mi South 4.6 mph - N/A   Mostly Cloudy
9:56 AM 73.9 °F - 70.0 °F 87% 29.76 in 6.0 mi SSE 11.5 mph - N/A   Mostly Cloudy
10:56 AM 75.0 °F - 69.1 °F 82% 29.76 in 10.0 mi South 8.1 mph - N/A   Overcast
10:58 AM 75.2 °F - 69.8 °F 83% 29.78 in 1.5 mi South 6.9 mph - N/A   Overcast
11:02 AM 75.2 °F - 69.8 °F 83% 29.77 in 10.0 mi South 10.4 mph - N/A   Overcast
11:56 AM 75.0 °F - 68.0 °F 79% 29.75 in 10.0 mi Variable 5.8 mph - N/A   Overcast
12:56 PM 79.0 °F - 69.1 °F 72% 29.73 in 10.0 mi Variable 3.5 mph - N/A   Scattered Clouds
1:56 PM 81.0 °F 83.8 °F 68.0 °F 65% 29.72 in 10.0 mi West 6.9 mph - N/A   Scattered Clouds
2:56 PM 82.0 °F 84.9 °F 68.0 °F 62% 29.70 in 10.0 mi Variable 3.5 mph - N/A   Scattered Clouds
3:56 PM 84.0 °F 86.3 °F 66.0 °F 55% 29.70 in 10.0 mi Variable 3.5 mph - N/A   Scattered Clouds
4:56 PM 82.0 °F 86.3 °F 71.1 °F 69% 29.68 in 9.0 mi SSE 6.9 mph 18.4 mph N/A   Mostly Cloudy
5:56 PM 82.9 °F 86.5 °F 69.1 °F 63% 29.67 in 10.0 mi South 5.8 mph - N/A   Scattered Clouds
6:56 PM 82.9 °F 84.4 °F 64.0 °F 53% 29.66 in 10.0 mi Variable 5.8 mph - N/A   Clear
7:56 PM 77.0 °F - 66.9 °F 71% 29.67 in 10.0 mi Calm Calm - N/A   Clear
8:56 PM 75.0 °F - 68.0 °F 79% 29.66 in 8.0 mi SE 3.5 mph - 0.00 in Rain Light Rain
9:56 PM 73.9 °F - 69.1 °F 85% 29.68 in 9.0 mi South 3.5 mph - N/A   Clear
10:56 PM 73.9 °F - 70.0 °F 87% 29.67 in 9.0 mi Calm Calm - N/A   Clear
11:56 PM 75.0 °F - 70.0 °F 84% 29.65 in 10.0 mi Calm Calm - N/A   Scattered Clouds